Wind_Speed
20 19 17 18 19 18 18 14 13 14 14 14 13 12 10 9 9 11 12 14 15 15 15 16 17 17 17 17 15 12 11 12 14 16 16 16 16 17 19 19 20 20 22
21 19 18 18 19 20 19 16 14 15 16 16 15 13 12 11 11 12 13 15 16 16 16 17 17 18 17 17 16 16 12 12 14 16 16 16 18 18 19 20 22 21 23
19 20 20 22 22 22 22 19 18 18 18 18 18 15 13 12 12 13 14 16 18 19 19 18 18 18 18 18 17 15 14 13 13 14 16 16 18 17 21 22 20 22 24
22 22 23 24 25 24 24 22 20 19 19 18 17 16 15 13 13 14 15 17 19 21 21 22 21 20 19 17 17 16 15 14 13 13 15 16 15 19 22 22 22 22 23
24 25 27 27 26 27 23 22 20 18 18 18 16 16 16 16 15 16 17 19 22 23 22 22 22 21 21 18 18 17 16 16 16 15 14 16 17 17 23 23 22 22 19
27 27 30 31 31 28 27 23 21 18 17 17 16 17 17 17 17 18 20 23 25 24 23 21 21 20 20 19 17 16 16 16 16 17 16 17 15 19 21 23 24 23 24
30 30 31 34 35 32 29 28 23 22 20 19 19 19 19 19 20 21 23 26 25 23 22 21 21 20 20 20 19 17 17 17 17 17 17 18 17 17 20 22 25 24 25
33 33 33 35 36 33 31 30 27 24 23 23 23 23 22 23 23 24 24 24 22 22 22 19 18 18 19 20 21 20 19 18 19 18 18 17 19 20 19 22 22 23 26
35 35 35 35 35 33 32 28 28 27 27 26 26 26 26 26 27 26 24 23 22 19 18 18 18 18 19 19 21 22 22 22 22 22 21 18 19 21 22 23 24 23 25
36 37 35 33 33 32 32 30 29 28 27 26 25 25 26 26 26 25 22 20 17 18 19 18 16 16 18 19 20 21 23 24 24 25 24 25 23 22 24 25 26 25 24
37 35 33 32 31 31 31 30 30 29 27 26 27 27 27 27 26 23 17 18 17 10 10 9 10 13 15 17 19 19 21 23 25 27 28 26 28 27 27 27 27 28 24
36 34 33 31 31 31 30 31 30 29 28 28 29 26 24 25 21 17 18 16 11 8 8 9 12 14 15 17 19 21 24 24 25 24 27 29 30 30 29 31 30 28 28
35 35 34 32 31 31 30 30 30 30 29 27 26 23 21 20 19 20 17 15 15 15 15 13 15 16 16 18 18 20 24 26 26 27 26 28 31 34 32 32 34 32 30
36 35 33 33 31 30 28 31 30 29 27 24 22 20 21 22 23 21 19 18 19 19 21 21 21 21 21 21 22 23 24 27 28 27 29 29 29 33 35 33 36 35 36
35 34 34 32 31 30 30 32 29 27 24 23 22 22 24 26 25 23 22 22 23 23 24 26 27 29 31 30 27 27 27 28 29 30 30 31 29 29 35 37 39 39 39
35 33 33 32 32 32 32 29 27 27 25 24 23 25 25 24 26 25 26 27 28 28 29 30 31 32 33 34 34 34 29 29 30 31 33 35 33 32 34 38 40 43 41
35 35 34 33 34 33 30 28 27 27 24 24 26 27 27 27 27 29 30 32 32 32 32 34 35 34 33 34 35 34 33 31 30 33 34 35 39 37 37 36 41 44 46
36 37 35 34 35 33 29 29 28 28 27 28 28 28 28 27 26 28 30 32 34 35 35 36 37 38 38 36 35 35 36 36 35 34 37 38 38 41 41 40 42 46 47
34 36 36 35 35 34 31 30 29 29 30 28 28 27 28 28 29 31 33 35 37 38 39 40 41 42 40 39 38 37 37 38 37 36 38 40 40 43 44 46 49 49 49
35 35 36 35 35 36 36 34 33 30 31 31 30 29 30 32 34 35 36 37 38 40 41 42 43 44 44 43 41 38 39 41 42 40 40 42 42 45 45 50 56 57 51
33 33 33 35 36 38 38 39 39 36 35 35 34 34 35 36 37 38 39 41 42 42 43 44 46 46 47 46 44 42 42 43 45 43 45 44 45 45 46 52 61 62 59
32 33 34 34 37 40 40 41 42 41 41 41 41 41 41 41 41 42 43 43 44 46 47 49 50 49 48 49 48 47 44 45 44 46 48 47 47 45 47 54 58 57 56
33 33 35 36 38 41 42 42 43 44 44 45 45 46 47 46 46 47 48 48 49 50 51 52 51 47 45 49 50 50 46 45 44 49 51 51 48 47 46 53 47 49 48
34 36 38 39 40 44 45 45 46 46 47 49 49 50 51 52 51 51 52 53 53 53 53 52 50 51 50 49 51 52 51 49 48 46 49 51 48 47 45 48 47 49 47
32 36 38 40 41 44 47 48 49 50 51 52 54 54 54 54 55 56 56 56 55 54 53 53 53 54 53 51 53 54 53 54 53 51 43 46 47 47 45 45 45 47 48
36 38 38 40 42 45 47 48 51 53 54 54 55 56 57 58 58 58 56 56 57 57 57 57 58 58 56 56 55 54 53 55 54 52 49 46 44 43 46 42 43 43 46
Wind_Direction
310 310 312 313 315 317 320 320 317 321 323 322 321 324 327 333 342 344 343 349 350 350 350 351 350 351 356 356 358 355 338 325 316 310 308 303 300 305 305 301 299 299 297
303 308 312 316 316 316 318 315 306 310 316 321 320 318 320 324 332 336 339 337 338 341 341 343 344 343 342 346 349 351 340 328 322 317 313 307 304 307 306 305 304 301 299
299 296 303 308 313 314 314 309 304 302 306 312 315 315 315 317 317 325 328 328 331 331 335 333 333 333 334 338 338 341 339 326 315 312 314 313 304 307 307 313 303 305 304
288 294 297 301 306 311 314 310 305 304 300 300 306 308 308 308 312 315 321 323 322 323 323 324 325 324 324 328 331 328 329 327 315 303 308 309 303 304 309 309 310 310 305
289 292 295 299 300 303 308 308 302 302 302 300 299 301 303 305 310 314 317 316 317 314 311 313 314 315 314 317 320 321 321 322 320 310 302 303 306 303 307 311 311 311 306
287 289 290 294 296 298 304 305 304 298 295 298 299 298 298 301 303 305 307 308 308 302 301 305 305 307 308 310 311 312 316 316 314 311 307 302 304 300 302 308 311 310 305
282 285 288 290 295 301 302 303 303 305 302 299 298 296 294 295 296 299 303 305 302 299 299 301 304 305 306 307 309 308 306 309 312 307 304 306 297 294 301 305 311 310 309
283 286 287 290 297 301 301 301 302 301 298 295 292 291 291 292 295 298 300 300 296 296 294 298 305 312 316 318 318 316 311 308 304 305 305 302 300 296 292 295 305 309 309
284 286 288 293 296 297 299 300 299 298 295 290 287 287 288 290 292 295 295 292 294 292 299 303 304 305 309 312 315 319 322 320 314 309 305 305 295 294 292 290 297 304 303
281 284 289 292 293 295 298 298 295 293 292 292 289 286 285 285 288 287 290 289 293 299 300 301 310 316 313 311 312 314 317 318 316 314 316 313 305 295 293 291 291 295 299
281 285 289 290 289 290 291 292 291 292 295 294 292 290 285 283 280 284 282 285 287 289 300 322 336 350 351 350 345 341 333 326 319 316 317 319 317 308 294 290 289 289 292
281 283 283 283 283 285 286 286 290 295 296 296 295 293 287 283 279 275 279 275 268 280 297 316 324 333 336 335 335 338 336 335 330 323 316 320 318 312 308 295 290 288 286
278 280 280 279 279 280 282 285 290 291 292 293 291 289 285 274 274 276 268 269 275 275 288 294 302 312 319 320 320 319 320 321 321 322 318 322 328 314 306 304 297 288 285
276 276 277 276 275 276 276 281 285 286 288 288 286 282 278 275 275 266 264 266 277 283 287 293 296 302 305 308 313 312 313 315 313 311 316 315 313 319 310 302 302 296 287
272 272 272 274 275 274 274 280 279 280 280 280 277 275 275 276 271 267 267 274 282 284 285 288 294 298 298 297 298 300 302 304 308 306 304 306 307 310 317 309 302 297 291
271 271 272 274 276 276 279 279 276 274 276 274 274 278 278 275 268 266 271 275 280 283 288 290 292 293 293 294 294 289 291 295 299 301 300 300 299 303 306 308 301 295 290
269 269 271 273 275 276 277 274 271 271 270 270 276 277 279 275 273 270 273 280 285 288 289 290 288 288 287 289 289 286 287 285 290 292 294 296 296 297 297 300 301 292 289
266 267 268 271 273 272 270 271 268 270 272 273 274 277 275 275 276 278 280 282 285 287 288 288 287 286 287 285 286 284 283 283 284 286 286 292 293 294 293 296 294 291 281
262 266 270 270 270 269 269 268 265 268 268 268 272 276 279 281 282 282 284 286 288 290 290 288 287 286 284 284 284 283 282 279 280 282 283 284 289 291 291 294 292 284 274
263 265 269 270 269 271 272 270 270 270 269 271 273 279 283 284 284 285 286 287 287 287 287 287 287 287 286 284 284 283 281 281 279 278 282 281 284 285 286 290 291 280 268
266 265 264 267 270 274 277 278 279 278 277 278 280 282 285 283 282 283 284 285 286 286 287 288 287 287 288 287 286 286 283 281 280 279 279 279 279 282 286 291 287 274 265
262 262 264 266 268 272 273 276 279 281 281 281 283 286 286 287 285 284 284 285 288 290 289 289 289 287 287 287 285 284 280 280 281 279 281 279 280 283 288 292 281 268 265
265 265 267 270 273 273 274 273 274 277 279 281 284 286 288 288 287 287 288 288 288 289 288 288 288 289 290 288 288 287 283 280 277 281 280 279 280 285 291 293 276 264 269
267 266 268 268 268 269 271 273 274 276 278 280 283 285 287 288 287 286 286 286 286 285 286 287 289 291 291 288 288 287 284 281 279 279 277 278 281 286 292 290 264 264 266
270 267 268 270 271 270 272 273 275 277 278 281 283 285 285 285 285 286 287 287 286 287 286 287 289 289 289 285 286 286 284 282 281 282 275 273 281 288 292 288 265 266 259
269 272 272 271 271 273 274 275 276 278 280 281 282 284 284 284 285 285 286 286 287 287 285 285 286 287 285 283 283 282 283 283 281 280 278 274 276 283 290 287 263 264 259
Height
5853 5853 5853 5854 5852 5851 5850 5849 5849 5848 5847 5846 5844 5841 5840 5839 5838 5838 5838 5837 5837 5836 5835 5834 5834 5832 5831 5831 5829 5828 5827 5827 5827 5826 5826 5825 5824 5822 5820 5819 5818 5816 5814
5850 5851 5851 5851 5850 5849 5848 5847 5846 5846 5845 5844 5842 5841 5839 5838 5837 5836 5836 5835 5835 5834 5834 5833 5832 5831 5829 5828 5828 5827 5825 5824 5824 5824 5823 5822 5822 5819 5818 5817 5815 5814 5812
5851 5849 5849 5848 5847 5846 5845 5844 5843 5842 5841 5841 5840 5839 5838 5837 5836 5835 5834 5834 5833 5833 5832 5831 5830 5829 5828 5826 5826 5825 5823 5822 5821 5821 5820 5820 5817 5817 5816 5815 5813 5811 5809
5847 5847 5846 5845 5844 5844 5844 5842 5841 5839 5838 5838 5837 5837 5836 5835 5834 5833 5832 5832 5832 5830 5829 5829 5827 5826 5825 5824 5823 5823 5822 5821 5819 5818 5817 5816 5816 5814 5813 5813 5810 5808 5806
5845 5843 5842 5841 5840 5840 5840 5839 5837 5836 5835 5834 5834 5834 5834 5833 5832 5831 5831 5830 5829 5828 5827 5826 5825 5823 5822 5821 5821 5820 5819 5818 5816 5815 5813 5813 5812 5811 5811 5810 5808 5806 5804
5841 5840 5838 5836 5835 5835 5835 5835 5834 5833 5832 5831 5830 5830 5831 5830 5830 5829 5829 5828 5827 5826 5824 5822 5821 5820 5819 5817 5817 5817 5815 5815 5813 5813 5811 5809 5809 5808 5807 5807 5806 5803 5801
5837 5836 5834 5833 5832 5832 5832 5832 5831 5830 5829 5828 5828 5827 5827 5826 5826 5826 5825 5824 5823 5822 5820 5819 5818 5816 5815 5814 5813 5813 5812 5812 5810 5809 5808 5808 5805 5804 5804 5803 5802 5800 5798
5832 5831 5830 5829 5828 5828 5828 5828 5827 5827 5826 5825 5825 5824 5823 5823 5822 5821 5821 5820 5819 5818 5817 5816 5815 5813 5813 5811 5810 5810 5809 5808 5807 5806 5805 5804 5803 5802 5800 5799 5798 5797 5795
5827 5826 5826 5825 5824 5823 5823 5823 5822 5822 5822 5821 5820 5820 5819 5819 5818 5817 5816 5815 5815 5814 5813 5812 5811 5809 5808 5807 5806 5805 5804 5804 5804 5802 5801 5801 5799 5799 5798 5795 5794 5793 5792
5821 5821 5821 5820 5820 5819 5817 5817 5817 5816 5816 5816 5815 5815 5814 5813 5812 5812 5812 5811 5811 5810 5809 5808 5807 5806 5804 5803 5803 5802 5801 5801 5800 5798 5798 5797 5796 5795 5793 5792 5791 5790 5788
5816 5816 5816 5815 5815 5814 5813 5812 5811 5810 5810 5810 5809 5809 5808 5808 5807 5807 5807 5807 5806 5806 5805 5804 5803 5802 5801 5799 5799 5798 5797 5796 5795 5794 5793 5793 5792 5792 5790 5788 5787 5786 5785
5812 5811 5810 5809 5809 5808 5807 5806 5805 5805 5805 5805 5804 5803 5802 5802 5802 5802 5802 5802 5802 5802 5801 5799 5799 5798 5798 5797 5796 5795 5794 5793 5792 5791 5789 5787 5787 5787 5787 5784 5783 5782 5781
5806 5805 5805 5804 5803 5802 5802 5801 5800 5800 5800 5799 5799 5798 5798 5797 5797 5797 5797 5797 5797 5797 5796 5795 5794 5793 5792 5792 5792 5792 5790 5790 5788 5787 5786 5785 5783 5780 5780 5780 5779 5777 5777
5800 5799 5799 5799 5798 5797 5795 5796 5794 5794 5794 5794 5794 5793 5793 5793 5793 5792 5792 5792 5792 5793 5792 5791 5790 5789 5788 5786 5785 5784 5784 5783 5783 5783 5780 5779 5779 5775 5773 5774 5772 5773 5771
5794 5793 5793 5792 5792 5792 5791 5791 5789 5789 5789 5789 5789 5788 5788 5788 5787 5787 5787 5787 5787 5787 5786 5786 5784 5783 5782 5782 5780 5778 5777 5776 5774 5774 5774 5774 5773 5772 5768 5767 5767 5765 5765
5788 5787 5786 5785 5786 5785 5785 5784 5784 5782 5783 5783 5783 5783 5781 5782 5781 5781 5781 5781 5781 5779 5779 5777 5776 5775 5774 5774 5772 5771 5770 5768 5768 5767 5766 5765 5766 5766 5764 5761 5761 5760 5759
5780 5780 5779 5779 5779 5779 5779 5778 5778 5777 5776 5776 5777 5776 5775 5775 5775 5774 5774 5774 5773 5772 5771 5770 5768 5768 5767 5765 5764 5763 5762 5761 5760 5758 5757 5757 5757 5757 5757 5757 5754 5752 5752
5773 5772 5771 5771 5771 5771 5771 5772 5772 5771 5770 5769 5768 5769 5768 5768 5767 5767 5766 5766 5764 5763 5762 5761 5760 5759 5758 5756 5755 5754 5753 5752 5752 5750 5748 5746 5747 5747 5747 5748 5747 5745 5743
5766 5764 5764 5764 5763 5763 5763 5763 5764 5764 5763 5762 5761 5761 5760 5760 5759 5758 5758 5756 5754 5753 5752 5751 5750 5749 5747 5746 5745 5744 5743 5743 5742 5740 5739 5737 5736 5736 5735 5736 5736 5734 5732
5758 5757 5757 5758 5757 5756 5756 5755 5757 5757 5757 5757 5755 5754 5753 5752 5751 5750 5749 5748 5747 5744 5743 5741 5740 5737 5736 5735 5734 5733 5732 5731 5730 5730 5728 5726 5726 5725 5724 5721 5721 5717 5719
5752 5751 5750 5751 5750 5750 5750 5749 5749 5748 5748 5747 5747 5745 5745 5743 5743 5742 5740 5738 5736 5735 5733 5731 5729 5727 5724 5723 5722 5722 5721 5720 5718 5719 5718 5715 5714 5712 5712 5711 5703 5702 5705
5743 5742 5742 5743 5742 5742 5741 5740 5740 5740 5739 5738 5737 5736 5734 5732 5732 5731 5729 5727 5725 5723 5721 5719 5717 5715 5712 5710 5710 5709 5710 5709 5707 5705 5705 5703 5701 5699 5698 5696 5689 5685 5689
5736 5736 5735 5735 5735 5733 5732 5732 5730 5730 5729 5729 5727 5725 5724 5722 5720 5719 5717 5714 5713 5710 5708 5706 5704 5702 5701 5696 5695 5694 5695 5695 5696 5692 5689 5689 5688 5686 5683 5678 5675 5674 5676
5728 5727 5726 5725 5726 5724 5723 5722 5721 5719 5718 5717 5717 5715 5713 5711 5710 5708 5705 5703 5701 5698 5695 5692 5690 5688 5686 5685 5681 5679 5679 5679 5680 5685 5679 5672 5673 5671 5669 5665 5662 5662 5662
5720 5718 5717 5717 5717 5716 5715 5713 5711 5709 5708 5706 5705 5703 5701 5699 5697 5696 5693 5690 5687 5684 5681 5679 5676 5673 5671 5671 5668 5666 5664 5663 5662 5663 5668 5665 5658 5654 5654 5652 5650 5650 5649
5709 5708 5708 5707 5707 5705 5704 5703 5701 5699 5697 5695 5693 5690 5688 5685 5682 5680 5678 5675 5672 5670 5667 5665 5662 5658 5656 5654 5653 5651 5650 5648 5646 5645 5647 5649 5650 5644 5639 5638 5637 5638 5638